User: anonymous   Login
Location: ???? ?????????
(31.1304°N, 31.7111°E)
Time: 06:45:10
(UTC+00:00)
Language:

Okean-O - Orbit

View from above orbital plane
View from above orbital plane
View from above satellite
View from above satellite

Ground track
Ground track

The orbit data is extracted from the following two-line orbital elements,

1 25860U 99039A   21015.53272513  .00000030  00000-0  11892-4 0  9996
2 25860  98.1990  44.0494 0000744  91.1341 268.9953 14.76705721156811
Epoch (UTC): 15 January 2021 12:47:07
Eccentricity: 0.0000744
inclination: 98.1990°
perigee height: 639 km
apogee height: 640 km
right ascension of ascending node: 44.0494°
argument of perigee: 91.1341°
revolutions per day: 14.76705721
mean anomaly at epoch: 268.9953°
orbit number at epoch: 15681

The dashed part of the orbit path shows where the satellite is in the earth's shadow,  

DLR